www.pogodaiklimat.ru

Погода и климат >> Архив погоды >> Канада >> Ньюфаундленд и Лабрадор >> Черчилл Фолс


ПОГОДА в Черчилл Фолс

  • Прогноз погоды в Черчилл Фолс
  • Монитор погоды в Черчилл Фолс

АРХИВ ПОГОДЫ в Черчилл Фолс

Время (UTC), дата Ветер
(напр.,м/с)
 
Видим.   Явления Облачность Т
(С)
Тd
(С)
f
(%)
Тe
(С)
Тes
(С)
Комфортность P
(гПа)
Po
(гПа)
Тmin
(С)
Tmax
(С)
R
(мм)
R24
(мм)
S
(см)
06 17.02 З 6 2800 м слаб. снег 10/10 600 м
[]
-11.7 -13.5 86 -20 -20 995.4 941.2 -17.2 -5.6 7
09 17.02 З 6 16 км слаб. снег 3/3 300 м
[]
-17.2 -19.7 81 -27 -27 997.9 943.3
12 17.02 З 6 16 км ясно -21.2 -24.7 73 -32 -32 опасность
обморожения
1000.4 945.0 -21.3 -5.6
15 17.02 З 6 4800 м дым 10/10 600 м
[]
-18.9 -23.6 66 -29 -29 1000.4 945.2
18 17.02 З 8 2400 м слаб. снег 10/10 600 м
[]
-18.5 -23.4 65 -31 -31 опасность
обморожения
1000.0 944.9 -21.3 -11.7
21 17.02 З 7 2000 м слаб. снег 10/10 600 м
[]
-19.2 -23.4 69 -30 -30 1001.1 945.5
00 18.02 З 8 4800 м слаб. снег 10/10 600 м
[]
-20.3 -24.4 70 -33 -33 опасность
обморожения
1002.0 946.1 -21.3 -17.8 0.0
03 18.02 З 7 2800 м слаб. снег {осадки} 10/10 600 м
[]
-21.1 -25.2 69 -33 -33 опасность
обморожения
1001.5 945.7
06 18.02 З 7 2000 м слаб. снег {осадки} 9/9 600 м
[]
-20.8 -24.3 73 -32 -32 опасность
обморожения
1001.7 945.9 -21.3 -11.7 0.6 221
09 18.02 З 6 16 км {осадки} 10/10 600 м
[]
-21.2 -25.3 69 -33 -33 опасность
обморожения
1002.9 947.0
12 18.02 З 7 16 км ясно -20.8 -24.6 71 -32 -32 опасность
обморожения
1004.7 948.6 -21.5 -11.7
15 18.02 З 9 11 км слаб. снег ясно -18.4 -23.4 65 -31 -31 опасность
обморожения
1005.8 949.8
18 18.02 СЗ 10 12 км слаб. снег ясно -16.0 -21.3 64 -28 -28 1006.3 950.4 -21.5 -15.8
21 18.02 З 8 16 км 10/10 300 м
[]
-15.5 -19.6 71 -26 -26 1007.5 951.6
00 19.02 З 7 16 км 3/3 600 м
[]
-17.9 -22.0 70 -29 -29 1008.6 952.5 -21.5 -15.1
03 19.02 СЗ 8 16 км 10/10 600 м
[]
-20.6 -25.0 68 -33 -33 опасность
обморожения
1009.1 952.9
06 19.02 СЗ 7 16 км 10/10 300 м
[]
-21.6 -25.5 71 -34 -34 опасность
обморожения
1009.0 952.9 -21.7 -15.1 151
09 19.02 З 6 16 км 10/10 600 м
[]
-21.0 -25.3 68 -32 -32 опасность
обморожения
1009.1 953.1
12 19.02 З 6 16 км ясно -24.3 -28.3 69 -36 -36 опасность
обморожения
1010.9 954.4 -24.3 -15.1
15 19.02 З 7 16 км ясно -23.3 -29.3 58 -36 -36 опасность
обморожения
1011.7 955.1
18 19.02 З 7 16 км 9/9 600 м
[]
-22.8 -29.3 55 -35 -35 опасность
обморожения
1011.3 954.6 -24.4 -21.0
21 19.02 З 6 16 км 5/5 600 м
[]
-24.4 -30.9 55 -36 -35 опасность
обморожения
1012.5 955.7
00 20.02 З 6 16 км ясно -27.7 -33.6 57 -41 -41 опасность
обморожения
1014.3 956.9 -27.7 -22.6
03 20.02 З 7 16 км ясно -29.2 -34.2 62 -43 -43 опасность
обморожения
1015.5 958.0
06 20.02 З 6 16 км ясно -30.1 -35.2 61 -44 -44 опасность
обморожения
1015.5 958.0 -30.1 -21.0 151
09 20.02 З 7 16 км ясно -30.2 -35.1 62 -45 -45 опасность
обморожения
1016.4 958.7
12 20.02 З 6 16 км ясно -29.6 -34.7 61 -43 -43 опасность
обморожения
1018.1 960.1 -30.5 -21.0
15 20.02 СЗ 9 14 км ясно -26.8 -32.8 57 -42 -42 опасность
обморожения
1018.4 960.5
18 20.02 З 7 14 км ясно -23.0 -30.3 51 -36 -35 опасность
обморожения
1017.9 960.3 -30.5 -22.9
21 20.02 З 6 16 км ясно -21.5 -28.5 53 -33 -32 опасность
обморожения
1019.2 961.6
00 21.02 З 5 16 км ясно -23.7 -28.6 64 -34 -34 опасность
обморожения
1019.7 961.9 -30.5 -21.3
03 21.02 З 4 16 км ясно -23.9 -28.1 68 -34 -34 опасность
обморожения
1019.0 961.5
06 21.02 СЗ 2 16 км ясно -27.8 -30.8 75 -34 -34 опасность
обморожения
1019.2 961.7 -30.5 -21.3 141
09 21.02 З 1 16 км ясно -32.8 -36.0 73 -37 -37 опасность
обморожения
1017.2 959.5
12 21.02 З 2 16 км ясно -30.4 -33.8 72 -37 -37 опасность
обморожения
1015.3 957.7 -34.7 -21.3
15 21.02 ЮЗ 2 16 км ясно -19.9 -26.8 54 -26 -26 1012.4 955.7
18 21.02 З 3 16 км ясно -15.1 -23.7 48 -22 -19 1008.9 952.5 -34.7 -14.8
21 21.02 З 2 16 км ясно -15.4 -23.0 52 -21 -17 1007.3 950.6
00 22.02 З 2 16 км ясно -26.0 -29.4 73 -33 -33 опасность
обморожения
1007.3 950.0 -34.7 -14.2
03 22.02 СЗ 1 16 км 10/10 600 м
[]
-24.9 -27.8 77 -26 -26 1006.8 950.4
06 22.02 СЗ 2 16 км ясно -26.7 -29.3 79 -34 -34 опасность
обморожения
1007.8 951.5 -34.7 -14.2
09 22.02 З 3 16 км 3/3 1000 м
[]
-24.8 -27.7 77 -33 -33 опасность
обморожения
1008.5 952.3
12 22.02 З 6 16 км ясно -23.6 -27.3 71 -36 -36 опасность
обморожения
1012.0 954.9 -27.2 -14.2
15 22.02 СЗ 9 16 км 3/3 600 м
[]
-22.9 -29.1 57 -37 -37 опасность
обморожения
1013.9 956.9
18 22.02 З 9 16 км 3/3 600 м
[]
-19.9 -27.9 49 -33 -32 опасность
обморожения
1014.6 957.6 -27.2 -19.5
21 22.02 СЗ 9 16 км ясно -20.1 -27.0 54 -33 -33 опасность
обморожения
1016.4 959.4
00 23.02 З 6 16 км ясно -21.5 -26.8 62 -33 -32 опасность
обморожения
1018.3 961.2 -27.2 -19.2
03 23.02 З 10 16 км ясно -21.3 -25.9 66 -35 -35 опасность
обморожения
1018.9 961.8
06 23.02 З 7 16 км 10/10 600 м
[]
-19.6 -24.3 66 -31 -31 опасность
обморожения
1019.6 962.8 -27.2 -19.2 131
09 23.02 З 6 16 км 5/5 600 м
[]
-20.1 -24.6 67 -31 -31 опасность
обморожения
1020.1 963.2
12 23.02 З 5 16 км ясно -20.5 -24.8 68 -30 -30 1020.3 963.3 -21.7 -19.2
15 23.02 З 8 16 км ясно -17.5 -23.9 57 -29 -29 1020.4 963.6
18 23.02 СЗ 7 16 км ясно -15.3 -24.3 46 -26 -25 1020.1 963.6 -21.7 -15.2
21 23.02 СЗ 7 16 км 3/0
[]
-16.0 -24.0 50 -26 -25 1021.6 964.9
00 24.02 З 4 16 км ясно -18.6 -25.6 54 -27 -27 1023.0 966.1 -21.4 -15.1
03 24.02 З 5 16 км ясно -20.5 -27.0 56 -30 -30 1023.6 966.7

 

Местоположение метеостанции Черчилл Фолс (Ньюфаундленд и Лабрадор, Канада): широта 53.02 долгота -110.10 высота над уровнем моря 669 м.

В архиве по умолчанию представлена погода в Черчилл Фолс за последнюю неделю. Архивные данные за месяц целиком и за предыдущие месяцы, начиная с января 2011 года, Вы можете получить, выбрав интересующий диапазон дат из раскрывающегося списка и нажав кнопку "Ввод!".


*Определитесь, кто Вы:
робот инопланетянин человек

Внимание! Время в таблицах - всемирное. Для получения местного времени необходимо прибавить поправку, которая равна -6 ч.

Смотрите также архив погоды в соседних городах и на ближайших метеорологических станциях:

Погода в Риверкорсе (Альберта, Канада) (1 км)
Погода в Ллойдминстере (Альберта, Канада) (34 км)
Погода в Эджертоне (Альберта, Канада) (35 км)
Погода в Гилт Эдж Норд (Альберта, Канада) (35 км)
Погода в Китскоти (Альберта, Канада) (42 км)
Погода в Рибстоне (Альберта, Канада) (51 км)
Погода в Вермилейне (Альберта, Канада) (58 км)
Погода в Хагендене (Альберта, Канада) (68 км)
Погода в Уэйнрайте (Альберта, Канада) (71 км)
Погода в Альберт-холле (Альберта, Канада) (72 км)

Пояснения к столбцам:

Ветер - указаны скорость ветра в м/с - средняя за 10 мин, порывы в срок и между сроками (в фигурных скобках) и направление, откуда дует ветер: С - северный, СВ - северо-восточный, В - восточный, ЮВ - юго-восточный, Ю - южный, ЮЗ - юго-западный, З - западный, СЗ - северо-западный.
Видимость - горизонтальная дальность видимости в метрах или километрах. При видимости от 1 до 10 км при отсутствии осадков обычно наблюдается дымка, при ухудшении видимости до 1 км и менее - туман. В сухую погоду видимость может ухудшаться дымом, пылью или мглою.
Явления - указаны атмосферные явления, наблюдавшиеся в срок или в последний час перед сроком; фигурными скобками обозначены явления, наблюдавшиеся между сроками (за 1-3 часа до срока); квадратными скобками обозначены град или гололедные отложения с указанием их диаметра в мм.
Облачность - указаны через наклонную черту общая и нижняя облачность в баллах и высота нижней границы облаков в метрах; квадратными скобками обозначены формы облаков: Ci - перистые, Cs - перисто-слоистые, Cc - перисто-кучевые, Ac - высококучевые, As - высокослоистые, Sc - слоисто-кучевые, Ns - слоисто-дождевые, Cu - кучевые, Cb - кучево-дождевые. Подробнее классификацию облаков см. в Атласе облаков (PDF).
T - Температура воздуха - температура, измеренная на высоте 2 м над землей.
Td - Температура точки росы - температура, при понижении до которой содержащийся в воздухе водяной пар достигнет насыщения.
f - Относительная влажность воздуха - влажноcть воздуха, измеренная на высоте 2 м над землей.
Te - Эффективная температура - температура, которую ощущает одетый по сезону человек в тени. Характеристика душности погоды. При расчете учитывается влияние влажности воздуха и скорости ветра на теплоощущения человека.
Tes - Эффективная температура на солнце - температура, которую ощущает человек, с поправкой на солнечный нагрев. Характеристика знойности погоды. Зависит от высоты солнца над горизонтом, облачности и скорости ветра. Ночью, в пасмурную погоду, а также при ветре 12 м/с и более поправка равна нулю.
P - Атмосферное давление - приведенное к уровню моря атмосферное давление.
Po - Атмосферное давление - измеренное на уровне метеостанции атмосферное давление.
Tmin - Минимальная температура - минимум температуры воздуха на высоте 2 м над землей.
Tmax - Максимальная температура - максимум температуры воздуха на высоте 2 м над землей.
R - Количество осадков - Количество выпавших осадков за период времени, мм. При наведении курсора мыши на число - период времени, за который выпало указанное количество осадков.
R24 - Количество осадков - Количество выпавших осадков за 24 часа, мм.
S - Снежный покров - Высота снежного покрова, см. При наведении курсора мыши на число - состояние снежного покрова и степень покрытия местности в баллах.